sat.trackr.live / text

‹ back to catalog

STARLINK-4433

NORAD 53478 · 2022-099P

PAYLOAD ACTIVE UNKNOWN

§ Identity

Operator
Country
US
Launch date
2022-08-12
Launch site
AFWTR
Launch vehicle
Mass (kg)
RCS (m²)

Purposes: comms

External: N2YO · Heavens-Above · Gunter

§ Orbital elements

Epoch: 2026-05-24T19:30:21.380544Z

Period
95.64 min
Inclination
97.4491°
Eccentricity
0.0000590
Mean motion
15.05649104 rev/d
Perigee alt
549.1 km
Apogee alt
549.9 km
Semi-major
6,927.7 km
B*
8.7940e-5
RAAN
264.7120°
Arg perigee
136.6441°
Mean anomaly
223.4833°
Rev number
20,742

§ Raw data

STARLINK-44331 53478U 22099P   26144.81274746  .00001210  00000+0  87940-4 0  99902 53478  97.4491 264.7120 0000590 136.6441 223.4833 15.05649104207429

JSON: /api/v1/satellites/53478 · /tle

For live sub-satellite position, see the globe view (requires WebGL).

§ Visibility from observer

Set your observer location to see the next 7 days of passes ≥ 10°. The values pass through the URL so the page stays shareable.

No JS? Fill the form by hand. The geolocation button needs JavaScript.